Wenn Sie den Mauscursor in der Übersichtskarte über ein Stationssymbol ziehen, so werden die aktuellen Stationsdaten eingeblendet. Dabei handelt es sich um die jeweils aktuell vorliegenden Messwerte einer Station (siehe Datum und Uhrzeitangabe).

Durch Anklicken des entsprechenden Stationssymbols gelangen Sie zu den Gangliniendarstellung der Niederschlagshöhe und der Lufttemperatur. Jeder Parameter ist für einen Zeitraum für 30 Tage dargestellt. Die Lufttemperaturganglinie wird dabei dem am längsten verfügbaren Vergleichszeitraum gegenüber gestellt. Somit kann man für jeden Zeitpunkt der aktuellen Lufttemperaturganglinie sehen, welchen Schwankungsbereich die Lufttemperatur im Vergleichszeitraum exakt für diesen Kalendertag bzw. Zeitpunkt bisher aufgewiesen hat und somit kann man die aktuelle Lufttemperatur gegenüber den langjährigen Verhältnissen sehr gut einstufen.  

Zudem können Sie die Daten für die letzten 30 Tage downloaden.

Die  Stationssymbole auf der Übersichtskarte werden entsprechend der aktuellen Lufttemperatur bei der jeweiligen Station eingefärbt (siehe dazu Legende neben der Übersichtskarte).

Stationsname Zeit [MEZ] NS [mm/15min] NS [mm/24h] Temp [°C] Luftfeuchte [%]
Andau 22.05.2022 14:15 0,0 0,0 22,3
Apetlon - A79 22.05.2022 14:15 0,0 0,0 22,1
Aspang 22.05.2022 14:15 0,0 0,0 20,4
Bad Tatzmannsdorf 22.05.2022 14:15 0,0 0,0 22,8
Bernstein 22.05.2022 14:15 0,0 0,0 19,1
Bonisdorf 22.05.2022 14:15 0,0 0,0 23,1
Bruckneudorf 22.05.2022 14:15 0,0 0,0 22,3
Deutsch Jahrndorf 22.05.2022 14:15 0,0 0,0 22,6
Deutsch Kaltenbrunn 22.05.2022 14:15 0,0 0,0 22,9
Deutschkreutz 22.05.2022 14:15 0,0 0,0 23,0
Donnerskirchen 22.05.2022 14:15 0,0 0,0 23,3
Drassburg 22.05.2022 14:15 0,0 0,0 23,3
Dürnbach 22.05.2022 14:15 0,0 0,0 21,5
Eisenstadt 22.05.2022 14:15 0,0 0,0 24,0
Feldbach 22.05.2022 14:15 0,0 0,0 23,4
Fischbach 22.05.2022 14:15 0,0 0,0 18,4
Frankenau 22.05.2022 14:15 0,0 0,0 21,1
Frauenkirchen 22.05.2022 14:15 0,0 0,0 22,6
Fürstenfeld 22.05.2022 14:15 0,0 0,0 22,1
Gattendorf 22.05.2022 14:15 0,0 0,0 22,8
Glasing 22.05.2022 14:15 0,0 0,0 23,1
Gleisdorf 22.05.2022 14:15 0,0 0,0 22,4
Halbturn 22.05.2022 14:15 0,0 0,0 23,1
Heiligenkreuz 22.05.2022 14:15 0,0 0,0 23,9
Hirschenkogel 22.05.2022 14:15 0,0 0,0 22,4
Hirschenstein 22.05.2022 14:15 0,0 0,0 17,9
Illmitz - Biologische Station 22.05.2022 14:15 0,0 0,0 23,4
Karl 22.05.2022 14:15 0,0 0,0 20,8
Kleinzicken 22.05.2022 14:15 0,0 0,0 22,3
Kobersdorf 22.05.2022 14:15 0,0 0,0 21,1
Lutzmannsburg 22.05.2022 14:15 0,0 0,0 21,6
Mattersburg 22.05.2022 14:15 0,0 0,0 22,8
Moenichkirchen 22.05.2022 14:15 0,0 0,0 15,8
Nebersdorf 22.05.2022 14:15 0,0 0,0 22,9
Neumarkt an der Raab 22.05.2022 14:15 0,0 0,0 24,9
Neusiedl am See 22.05.2022 14:15 0,0 0,0 23,1
Neustift an der Rosalia 22.05.2022 14:15 0,0 0,0 19,9
Nickelsdorf 22.05.2022 14:15 0,0 0,0 21,8
Nikitsch 22.05.2022 14:15 0,0 0,0 21,5
Oberpullendorf 22.05.2022 14:15 0,0 0,0 22,7
Oberwart 22.05.2022 14:15 0,0 0,0 23,2
Pinkafeld 22.05.2022 14:15 0,0 0,0 21,2
Pottschach 22.05.2022 14:15 0,0 0,0 22,8
Puchberg 22.05.2022 14:15 0,0 0,0 21,9
Ritzing 22.05.2022 14:15 0,0 0,0 21,8
Rust 22.05.2022 14:15 0,0 0,0 23,9
Seibersdorf 22.05.2022 14:15 0,0 0,0 24,4
Sieggraben 22.05.2022 14:15 0,0 0,0 21,0
St. Margarethen - Berg 22.05.2022 14:15 0,0 0,0 23,8
St. Michael 22.05.2022 14:15 0,0 0,0 24,9
Stadtschlaining 22.05.2022 14:15 0,0 0,0 18,5
Trausdorf 22.05.2022 14:15 0,0 0,0 25,0
Wiener Neustadt 22.05.2022 14:15 0,0 0,0 22,9
Woerterberg 22.05.2022 14:15 0,0 0,0 21,3
Wulkaprodersdorf 22.05.2022 14:15 0,0 0,0 23,4
Zurndorf - Friedrichshof 22.05.2022 14:15 0,0 0,0 23,2